Flag for U.S.A. Weather past 2 weeks in Panama City, Florida, U.S.A.

Now
83 °F

Partly sunny.


Feels Like: 88 °F
Forecast: 71 / 84 °F
Wind: 7 mph from South

Location: Tyndall Air Force Base

Current Time: May 29, 2015 at 1:29:26 PM

Latest Report: May 29, 2015 at 12:58 PM


Visibility: 10 mi

Pressure: 30.14 "Hg

Humidity: 64%

Dew point: 70 °F

Location of Panama CityLocation

Historic Weather in Panama City — Graph

°F

Panama City temperature yesterday

Maximum temperature yesterday: 84 °F (at 9:57 AM)
Minimum temperature yesterday: 71 °F (at 12:57 PM)
Average temperature yesterday: 74 °F

Past Weeks' High & Low Weather Summary

 TemperatureHumidityPressure
High88 °F (May 22, 3:58 PM)100% (May 17, 1:03 AM)30.27 "Hg (May 17, 1:03 AM)
Low66 °F (May 23, 5:58 AM)32% (May 22, 3:58 PM)29.95 "Hg (May 20, 4:58 PM)
Average78 °F79%30.13 "Hg
* Reported May 14 11:58 AM — May 29 11:58 AM, Panama City, Weather by CustomWeather, © 2015

Note: Actual official high and low records may vary slightly from our data, if they occured in-between our weather recording intervals... More about our weather records

Advertising

Panama City weather history for previous 24 hours

 ConditionsComfort  
Time TempWeatherWind HumidityBarometerVisibility
11:58 AM
Fri, May 29
84 °FScattered clouds.8 mph58%30.15 "Hg10 mi
10:58 AM83 °FPassing clouds.2 mph63%30.16 "Hg10 mi
9:58 AM82 °FPassing clouds.8 mph69%30.16 "Hg10 mi
8:58 AM79 °FSunny.7 mph76%30.15 "Hg10 mi
7:58 AM74 °FSunny.6 mph89%30.13 "Hg10 mi
6:58 AM71 °FSunny.1 mph96%30.11 "Hg10 mi
5:58 AM69 °FSunny.5 mph97%30.10 "Hg10 mi
4:58 AM70 °FClear.3 mph96%30.08 "Hg10 mi
3:58 AM70 °FClear.6 mph96%30.07 "Hg10 mi
2:58 AM70 °FClear.6 mph96%30.07 "Hg10 mi
1:58 AM70 °FClear.5 mph97%30.08 "Hg10 mi
12:58 AM71 °FClear.5 mph96%30.11 "Hg10 mi
11:58 PM
Thu, May 28
71 °FClear.3 mph98%30.13 "Hg10 mi
10:58 PM72 °FClear.5 mph97%30.14 "Hg10 mi
9:58 PM72 °FPassing clouds.3 mph97%30.15 "Hg10 mi
8:57 PM71 °FPassing clouds.2 mph97%30.14 "Hg10 mi
7:58 PM72 °FPassing clouds.2 mph95%30.13 "Hg10 mi
6:58 PM75 °FPartly sunny.No wind87%30.11 "Hg10 mi
5:58 PM75 °FDrizzle. Partly sunny.5 mph88%30.10 "Hg10 mi
4:58 PM73 °FPartly sunny.2 mph93%30.10 "Hg10 mi
3:57 PM72 °FBroken clouds.2 mph91%30.11 "Hg10 mi
2:58 PM72 °FPartly sunny.6 mph94%30.12 "Hg10 mi
1:57 PM71 °FThunderstorms. Partly sunny.2 mph95%30.14 "Hg5 mi
Weather by CustomWeather, © 2015

See weather overviewHow to use our weather pages